When you browse on this site, cookies collect data to enhance your experience and personalize the content and advertising you see.
Visit our Privacy Policy to learn more. By continuing to use the site, you agree to this use of cookies and data.
  • In Czech Republic
  • List of Countries
  • For 7 days
  • Water Temperature
  • Weather Map
  • Weather Widgets
  • user-avatar
    Login

    Hourly Weather Walpole

    Today, 22 August, Thursday

    Time Temperature Precipitation Wind Pressure Humidity
    00:00 +24°C° 0.1 mm 2 mps 752 mmHg 92%
    01:00 +23°C° 0.1 mm 2 mps 751 mmHg 93%
    02:00 +23°C° 0 mm 2 mps 751 mmHg 93%
    03:00 +23°C° 0 mm 2 mps 751 mmHg 93%
    04:00 +22°C° 0 mm 1 mps 751 mmHg 94%
    05:00 +23°C° 0 mm 1 mps 751 mmHg 92%
    06:00 +24°C° 0 mm 1 mps 752 mmHg 89%
    07:00 +25°C° 0 mm 1 mps 752 mmHg 87%
    08:00 +27°C° 0 mm 1 mps 752 mmHg 74%
    09:00 +29°C° 0 mm 2 mps 752 mmHg 61%
    10:00 +32°C° 0 mm 2 mps 752 mmHg 48%
    11:00 +32°C° 0 mm 2 mps 752 mmHg 46%
    12:00 +34°C° 0 mm 2 mps 752 mmHg 44%
    13:00 +35°C° 0 mm 3 mps 752 mmHg 42%
    14:00 +35°C° 0 mm 3 mps 751 mmHg 43%
    15:00 +35°C° 0 mm 3 mps 751 mmHg 44%
    16:00 +34°C° 0 mm 3 mps 751 mmHg 45%
    17:00 +31°C° 0 mm 3 mps 751 mmHg 52%
    18:00 +29°C° 0 mm 2 mps 751 mmHg 60%
    19:00 +27°C° 0 mm 2 mps 752 mmHg 67%
    20:00 +26°C° 0 mm 2 mps 752 mmHg 68%
    21:00 +25°C° 0 mm 2 mps 752 mmHg 70%
    22:00 +25°C° 0 mm 2 mps 752 mmHg 71%
    23:00 +24°C° 0.1 mm 2 mps 752 mmHg 70%

    Tomorrow, 23 August, Friday

    Time Temperature Precipitation Wind Pressure Humidity
    00:00 +23°C° 0.1 mm 2 mps 752 mmHg 68%
    01:00 +22°C° 0.1 mm 3 mps 753 mmHg 67%
    02:00 +21°C° 0.5 mm 2 mps 752 mmHg 75%
    03:00 +20°C° 0.5 mm 2 mps 752 mmHg 82%
    04:00 +20°C° 0.5 mm 1 mps 752 mmHg 90%
    05:00 +20°C° 0.6 mm 1 mps 753 mmHg 90%
    06:00 +20°C° 0.6 mm 1 mps 753 mmHg 90%
    07:00 +20°C° 0.6 mm 1 mps 753 mmHg 90%
    08:00 +21°C° 0 mm 2 mps 754 mmHg 78%
    09:00 +24°C° 0 mm 2 mps 754 mmHg 66%
    10:00 +25°C° 0 mm 2 mps 754 mmHg 54%
    11:00 +26°C° 0 mm 2 mps 754 mmHg 49%
    12:00 +27°C° 0 mm 3 mps 754 mmHg 45%
    13:00 +28°C° 0 mm 3 mps 754 mmHg 40%
    14:00 +28°C° 0 mm 3 mps 754 mmHg 41%
    15:00 +28°C° 0 mm 3 mps 753 mmHg 42%
    16:00 +28°C° 0 mm 3 mps 753 mmHg 43%
    17:00 +26°C° 0 mm 3 mps 754 mmHg 46%
    18:00 +24°C° 0 mm 3 mps 754 mmHg 50%
    19:00 +23°C° 0 mm 2 mps 755 mmHg 53%
    20:00 +21°C° 0 mm 3 mps 755 mmHg 54%
    21:00 +20°C° 0 mm 3 mps 755 mmHg 54%
    22:00 +20°C° 0 mm 3 mps 756 mmHg 55%
    23:00 +19°C° 0 mm 3 mps 756 mmHg 56%

    Day after tomorrow, 24 August, Saturday

    Time Temperature Precipitation Wind Pressure Humidity
    00:00 +18°C° 0 mm 2 mps 756 mmHg 58%
    01:00 +17°C° 0 mm 2 mps 756 mmHg 59%
    02:00 +17°C° 0 mm 2 mps 756 mmHg 61%
    03:00 +16°C° 0 mm 2 mps 756 mmHg 63%
    04:00 +16°C° 0 mm 2 mps 757 mmHg 65%
    05:00 +17°C° 0 mm 2 mps 757 mmHg 64%
    06:00 +18°C° 0 mm 3 mps 758 mmHg 62%
    07:00 +18°C° 0 mm 3 mps 758 mmHg 60%
    08:00 +20°C° 0 mm 3 mps 758 mmHg 56%
    09:00 +21°C° 0 mm 3 mps 759 mmHg 52%
    10:00 +24°C° 0 mm 2 mps 759 mmHg 48%
    11:00 +24°C° 0 mm 3 mps 759 mmHg 45%
    12:00 +25°C° 0 mm 3 mps 759 mmHg 43%
    13:00 +26°C° 0 mm 3 mps 759 mmHg 41%
    14:00 +26°C° 0 mm 3 mps 759 mmHg 43%
    15:00 +25°C° 0 mm 3 mps 759 mmHg 45%
    16:00 +25°C° 0 mm 3 mps 759 mmHg 48%
    17:00 +23°C° 0 mm 2 mps 759 mmHg 55%
    18:00 +20°C° 0 mm 2 mps 760 mmHg 61%
    19:00 +19°C° 0 mm 1 mps 760 mmHg 68%
    20:00 +18°C° 0 mm 1 mps 761 mmHg 71%
    21:00 +18°C° 0 mm 1 mps 761 mmHg 75%
    22:00 +15°C° 0 mm 0 mps 761 mmHg 78%
    23:00 +16°C° 0 mm 1 mps 761 mmHg 78%

    25 August, Sunday

    Time Temperature Precipitation Wind Pressure Humidity
    00:00 +16°C° 0 mm 1 mps 761 mmHg 78%
    01:00 +16°C° 0 mm 1 mps 762 mmHg 78%
    02:00 +16°C° 0 mm 1 mps 762 mmHg 78%
    03:00 +16°C° 0 mm 2 mps 762 mmHg 79%
    04:00 +16°C° 0 mm 2 mps 762 mmHg 80%
    05:00 +17°C° 0.1 mm 2 mps 762 mmHg 80%
    06:00 +18°C° 0.1 mm 3 mps 763 mmHg 80%
    07:00 +18°C° 0.1 mm 3 mps 763 mmHg 81%
    08:00 +20°C° 0.1 mm 4 mps 763 mmHg 74%
    09:00 +21°C° 0.1 mm 5 mps 764 mmHg 67%
    10:00 +22°C° 0.1 mm 5 mps 764 mmHg 60%
    11:00 +22°C° 0 mm 5 mps 764 mmHg 58%
    12:00 +22°C° 0 mm 5 mps 764 mmHg 56%
    13:00 +22°C° 0 mm 5 mps 763 mmHg 54%
    14:00 +22°C° 0 mm 5 mps 763 mmHg 55%
    15:00 +21°C° 0 mm 5 mps 763 mmHg 55%
    16:00 +21°C° 0 mm 4 mps 763 mmHg 56%
    17:00 +19°C° 0 mm 4 mps 763 mmHg 62%
    18:00 +17°C° 0 mm 3 mps 763 mmHg 68%
    19:00 +16°C° 0 mm 2 mps 764 mmHg 74%
    20:00 +15°C° 0 mm 2 mps 764 mmHg 77%
    21:00 +15°C° 0 mm 2 mps 764 mmHg 80%
    22:00 +14°C° 0 mm 2 mps 764 mmHg 84%
    23:00 +14°C° 0 mm 2 mps 764 mmHg 84%

    26 August, Monday

    Time Temperature Precipitation Wind Pressure Humidity
    00:00 +14°C° 0 mm 2 mps 764 mmHg 84%
    01:00 +14°C° 0 mm 2 mps 764 mmHg 84%
    02:00 +15°C° 0 mm 2 mps 764 mmHg 81%
    03:00 +14°C° 0 mm 3 mps 764 mmHg 79%
    04:00 +16°C° 0 mm 3 mps 764 mmHg 76%
    05:00 +16°C° 0 mm 3 mps 764 mmHg 76%
    06:00 +17°C° 0 mm 3 mps 764 mmHg 76%
    07:00 +17°C° 0 mm 4 mps 764 mmHg 76%
    08:00 +18°C° 0 mm 4 mps 764 mmHg 75%
    09:00 +18°C° 0 mm 4 mps 764 mmHg 75%
    10:00 +19°C° 0 mm 4 mps 764 mmHg 74%
    11:00 +19°C° 0 mm 4 mps 763 mmHg 72%
    12:00 +20°C° 0 mm 4 mps 763 mmHg 70%
    13:00 +20°C° 0 mm 4 mps 763 mmHg 67%
    14:00 +20°C° 0 mm 4 mps 763 mmHg 65%
    15:00 +21°C° 0 mm 4 mps 763 mmHg 63%
    16:00 +21°C° 0 mm 3 mps 763 mmHg 60%
    17:00 +19°C° 0 mm 3 mps 763 mmHg 68%
    18:00 +18°C° 0 mm 3 mps 763 mmHg 75%
    19:00 +16°C° 0 mm 2 mps 763 mmHg 83%
    20:00 +16°C° 0 mm 2 mps 763 mmHg 86%
    21:00 +15°C° 0 mm 2 mps 763 mmHg 89%
    22:00 +15°C° 0 mm 1 mps 763 mmHg 91%
    23:00 +15°C° 0 mm 1 mps 763 mmHg 92%

    27 August, Tuesday

    Time Temperature Precipitation Wind Pressure Humidity
    00:00 +15°C° 0 mm 2 mps 763 mmHg 93%
    01:00 +15°C° 0 mm 2 mps 762 mmHg 94%
    02:00 +15°C° 0 mm 2 mps 762 mmHg 93%
    03:00 +15°C° 0 mm 2 mps 762 mmHg 92%
    04:00 +15°C° 0 mm 2 mps 762 mmHg 92%
    05:00 +16°C° 0 mm 2 mps 762 mmHg 90%
    06:00 +17°C° 0 mm 2 mps 762 mmHg 88%
    07:00 +18°C° 0 mm 3 mps 762 mmHg 86%
    08:00 +18°C° 0 mm 3 mps 762 mmHg 85%
    09:00 +19°C° 0 mm 3 mps 762 mmHg 83%
    10:00 +20°C° 0 mm 2 mps 762 mmHg 82%
    11:00 +21°C° 0.1 mm 2 mps 762 mmHg 78%
    12:00 +23°C° 0.1 mm 2 mps 761 mmHg 75%
    13:00 +24°C° 0.1 mm 2 mps 761 mmHg 71%
    14:00 +24°C° 0.2 mm 2 mps 760 mmHg 74%
    15:00 +24°C° 0.2 mm 2 mps 760 mmHg 76%
    16:00 +24°C° 0.2 mm 2 mps 760 mmHg 79%
    17:00 +23°C° 0.1 mm 2 mps 760 mmHg 83%
    18:00 +21°C° 0.1 mm 2 mps 760 mmHg 87%
    19:00 +19°C° 0.1 mm 2 mps 759 mmHg 91%
    20:00 +19°C° 0 mm 2 mps 759 mmHg 92%
    21:00 +19°C° 0 mm 2 mps 759 mmHg 93%
    22:00 +19°C° 0 mm 2 mps 759 mmHg 93%
    23:00 +20°C° 0 mm 1 mps 759 mmHg 94%
    Show more